[[{"header":{"parameterUnit":"m.s-1","parameterCategory":1,"la1":30.2992,"la2":30.254,"lo1":-89.0895,"lo2":-89.0443,"dy":0.0025,"dx":0.0025,"nx":19,"ny":19,"refTime":"2026-05-01T21:00:00:Z","depth":0,"parameterNumber":2,"parameterNumberName":"U-component_of_WINDS"},"data":[0,0,0,-3.2087,-3.2089,-3.2146,-3.2146,-3.2239,-3.224,0,0,0,0,0,0,0,0,0,0,0,-3.2083,-3.2084,-3.2087,-3.2089,-3.2146,-3.2146,-3.2239,-3.224,0,0,0,0,0,0,0,0,0,0,0,-3.2083,-3.2084,-3.2085,-3.2089,-3.2146,-3.2146,-3.2239,-3.2189,0,0,0,0,0,0,0,0,0,0,-3.213,-3.2139,-3.2084,-3.2085,-3.209,-3.2146,-3.2146,-3.2186,-3.2192,-3.2223,0,-3.2254,0,-3.2249,-3.2248,-3.2248,0,0,0,-3.2079,-3.2134,-3.2138,-3.2086,-3.209,-3.2146,-3.2117,-3.2189,-3.2196,-3.2231,-3.2255,-3.2258,-3.225,-3.2249,-3.2249,-3.246,-3.2461,0,0,-3.2076,-3.2101,-3.2133,-3.2143,-3.2135,-3.2116,-3.2119,-3.2193,-3.2221,-3.2255,-3.226,-3.2252,-3.225,-3.225,-3.2458,-3.246,0,0,0,-3.2074,-3.2099,-3.21,-3.2139,-3.2148,-3.2117,-3.2122,-3.2217,-3.2216,-3.226,-3.2253,-3.225,-3.2252,-3.2457,-3.2459,-3.2554,0,0,0,-3.2071,-3.2097,-3.2099,-3.2115,-3.2147,-3.2184,-3.2145,-3.2211,-3.2218,-3.2252,-3.225,-3.2253,-3.2455,-3.2458,-3.2548,-3.2596,0,0,0,-3.2075,-3.2097,-3.211,-3.2116,-3.2141,-3.2182,-3.2184,-3.2212,-3.2214,-3.2249,-3.2253,-3.2454,-3.2457,-3.2543,-3.2587,-3.2659,0,0,0,-3.2087,-3.2194,-3.2112,-3.2229,-3.2141,-3.224,-3.2183,-3.2256,-3.2296,-3.2251,-3.2455,-3.2459,-3.2541,-3.2581,-3.2654,-3.2726,-3.2757,0,0,-3.2236,-3.2213,-3.228,-3.2208,-3.2328,-3.2229,-3.2363,-3.2377,-3.2358,-3.2427,-3.2431,-3.255,-3.2586,-3.2658,-3.2925,-3.295,0,0,0,-3.2336,-3.2384,-3.241,-3.245,-3.2463,-3.2479,-3.2469,-3.2474,-3.2532,-3.2398,-3.2594,-3.2615,-3.2656,-3.2689,-3.2711,-3.2745,-3.2475,-3.2474,-3.2474,-3.2584,-3.2553,-3.2661,-3.2637,-3.2677,-3.2665,-3.2694,-3.2699,-3.2657,-3.2703,-3.2725,-3.289,-3.293,-3.2946,-3.2982,-3.2758,-3.2759,-3.2759,-3.2759,-3.2802,-3.2866,-3.2805,-3.2889,-3.2856,-3.2926,-3.2919,-3.2886,-3.2946,-3.2872,-3.2906,-3.2829,-3.2975,-3.3005,-3.2766,-3.2765,-3.2764,-3.2763,-3.2763,-3.2962,-3.2988,-3.2991,-3.3045,-3.309,-3.3061,-3.3121,-3.3088,-3.3057,-3.3091,-3.311,-3.3109,-3.3104,-3.3102,-3.3103,-3.3103,-3.3104,-3.3104,-3.3104,-3.3129,-3.313,-3.3185,-3.3207,-3.3227,-3.325,-3.3239,-3.3259,-3.3272,-3.3243,-3.3243,-3.3196,-3.2994,-3.2945,-3.3113,-3.3112,-3.3111,-3.311,-3.3109,-3.3365,-3.3305,-3.3391,-3.3412,-3.3434,-3.3481,-3.3436,-3.3479,-3.349,-3.3521,-3.3466,-3.3322,-3.3296,-3.3279,-3.3238,-3.3472,-3.3472,-3.3472,-3.3472,-3.3502,-3.3485,-3.3564,-3.36,-3.363,-3.3598,-3.3696,-3.3688,-3.367,-3.3675,-3.3635,-3.3578,-3.3561,-3.3546,-3.3522,-3.3484,-3.3775,-3.3775,-3.3775,-3.3646,-3.363,-3.372,-3.3701,-3.3715,-3.3728,-3.3819,-3.3862,-3.3829,-3.3787,-3.3678,-3.3665,-3.3572,-3.3543,-3.3501,-3.3465,-3.3394,0,0]},{"header":{"parameterUnit":"m.s-1","parameterCategory":1,"la1":30.2992,"la2":30.254,"lo1":-89.0895,"lo2":-89.0443,"dy":0.0025,"dx":0.0025,"nx":19,"ny":19,"refTime":"2026-05-01T21:00:00:Z","depth":0,"parameterNumber":3,"parameterNumberName":"V-component_of_WINDS"},"data":[0,0,0,-4.35,-4.3501,-4.3562,-4.3563,-4.3646,-4.3647,0,0,0,0,0,0,0,0,0,0,0,-4.3487,-4.3488,-4.35,-4.3502,-4.3562,-4.3563,-4.3646,-4.3647,0,0,0,0,0,0,0,0,0,0,0,-4.3487,-4.3488,-4.3489,-4.3502,-4.3562,-4.3563,-4.3645,-4.3597,0,0,0,0,0,0,0,0,0,0,-4.3537,-4.3531,-4.3488,-4.3489,-4.3502,-4.3562,-4.3563,-4.3595,-4.36,-4.3621,0,-4.3643,0,-4.3646,-4.3653,-4.3653,0,0,0,-4.3497,-4.3527,-4.3538,-4.3489,-4.3503,-4.3562,-4.3534,-4.3598,-4.3604,-4.3628,-4.3644,-4.3647,-4.3648,-4.3653,-4.3654,-4.3793,-4.3794,0,0,-4.3494,-4.3501,-4.3534,-4.3542,-4.3536,-4.3532,-4.3536,-4.3601,-4.3618,-4.3644,-4.3649,-4.3649,-4.3654,-4.3655,-4.3792,-4.3793,0,0,0,-4.3487,-4.3499,-4.3508,-4.3539,-4.355,-4.3534,-4.3538,-4.3615,-4.3618,-4.365,-4.365,-4.3654,-4.3656,-4.3791,-4.3793,-4.3842,0,0,0,-4.3485,-4.3495,-4.3507,-4.3512,-4.3549,-4.3584,-4.3551,-4.3613,-4.3621,-4.365,-4.3655,-4.3656,-4.3791,-4.3792,-4.3839,-4.3864,0,0,0,-4.3481,-4.3494,-4.3505,-4.3512,-4.3539,-4.3583,-4.3589,-4.3615,-4.3621,-4.3653,-4.3657,-4.379,-4.3792,-4.3836,-4.3859,-4.3903,0,0,0,-4.3479,-4.3548,-4.3506,-4.3583,-4.3539,-4.3613,-4.3588,-4.3643,-4.3677,-4.3655,-4.3791,-4.3793,-4.3835,-4.3856,-4.39,-4.3941,-4.3958,0,0,-4.357,-4.3559,-4.3604,-4.3568,-4.3652,-4.3603,-4.3694,-4.3717,-4.3713,-4.3766,-4.377,-4.384,-4.3859,-4.3902,-4.4056,-4.4071,0,0,0,-4.3635,-4.3667,-4.3687,-4.372,-4.374,-4.3759,-4.3768,-4.3776,-4.382,-4.3743,-4.3867,-4.3878,-4.3903,-4.3922,-4.3935,-4.3955,-4.3802,-4.3802,-4.3802,-4.3773,-4.3765,-4.3837,-4.3836,-4.3867,-4.3875,-4.3899,-4.3911,-4.3893,-4.3923,-4.3938,-4.4033,-4.4056,-4.4065,-4.4087,-4.3959,-4.396,-4.396,-4.396,-4.3905,-4.3949,-4.3922,-4.3983,-4.3973,-4.4023,-4.4032,-4.4017,-4.4061,-4.4021,-4.4042,-4.3999,-4.4081,-4.4099,-4.3964,-4.3963,-4.3962,-4.3962,-4.3962,-4.3995,-4.4014,-4.4023,-4.4068,-4.4104,-4.4099,-4.4142,-4.4131,-4.4121,-4.4142,-4.4156,-4.4156,-4.4153,-4.415,-4.415,-4.415,-4.4151,-4.4151,-4.4151,-4.4084,-4.4093,-4.4132,-4.4158,-4.4176,-4.4199,-4.4206,-4.4224,-4.424,-4.4228,-4.4228,-4.4206,-4.4091,-4.4062,-4.4156,-4.4155,-4.4155,-4.4154,-4.4154,-4.4221,-4.4188,-4.4248,-4.4267,-4.4295,-4.433,-4.4315,-4.4351,-4.4363,-4.4385,-4.4358,-4.4275,-4.4263,-4.4253,-4.4229,-4.436,-4.436,-4.436,-4.436,-4.4297,-4.429,-4.4348,-4.4378,-4.4406,-4.4398,-4.4463,-4.4469,-4.4469,-4.4476,-4.4455,-4.4422,-4.4412,-4.4406,-4.4393,-4.437,-4.4535,-4.4535,-4.4535,-4.438,-4.4375,-4.4434,-4.4435,-4.4455,-4.4473,-4.4534,-4.4568,-4.4561,-4.4542,-4.448,-4.4473,-4.442,-4.4403,-4.4383,-4.4363,-4.4321,0,0]}]]